TimeCST,TemperatureF,Dew PointF,Humidity,Sea Level PressureIn,VisibilityMPH,Wind Direction,Wind SpeedMPH,Gust SpeedMPH,PrecipitationIn,Events,Conditions,WindDirDegrees,DateUTC
12:15 AM,24.8,19.4,80,30.25,10.0,NW,6.9,-,N/A,,Clear,310,2013-11-26 06:15:00
12:35 AM,21.2,15.8,80,30.25,10.0,Calm,Calm,-,N/A,,Clear,0,2013-11-26 06:35:00
12:55 AM,23.0,15.8,74,30.25,10.0,WNW,3.5,-,N/A,,Clear,300,2013-11-26 06:55:00
1:15 AM,21.2,15.8,80,30.24,10.0,WNW,8.1,-,N/A,,Clear,300,2013-11-26 07:15:00
1:35 AM,19.4,15.8,86,30.24,10.0,WNW,6.9,-,N/A,,Clear,300,2013-11-26 07:35:00
1:55 AM,21.2,15.8,80,30.25,10.0,WNW,8.1,-,N/A,,Clear,300,2013-11-26 07:55:00
2:15 AM,23.0,17.6,80,30.25,10.0,WNW,9.2,-,N/A,,Clear,300,2013-11-26 08:15:00
2:35 AM,23.0,17.6,80,30.25,10.0,WNW,6.9,-,N/A,,Clear,300,2013-11-26 08:35:00
2:55 AM,23.0,17.6,80,30.25,10.0,WNW,9.2,-,N/A,,Clear,300,2013-11-26 08:55:00
3:15 AM,21.2,17.6,86,30.25,10.0,WNW,9.2,-,N/A,,Clear,300,2013-11-26 09:15:00
3:35 AM,21.2,15.8,80,30.25,10.0,WNW,9.2,-,N/A,,Clear,300,2013-11-26 09:35:00
3:55 AM,21.2,17.6,86,30.25,10.0,WNW,8.1,-,N/A,,Clear,300,2013-11-26 09:55:00
4:15 AM,24.8,17.6,74,30.26,10.0,NW,9.2,-,N/A,,Clear,310,2013-11-26 10:15:00
4:35 AM,24.8,17.6,74,30.26,10.0,NW,9.2,-,N/A,,Clear,310,2013-11-26 10:35:00
4:55 AM,24.8,17.6,74,30.27,10.0,NW,11.5,-,N/A,,Clear,310,2013-11-26 10:55:00
5:15 AM,24.8,17.6,74,30.27,10.0,NW,12.7,-,N/A,,Clear,310,2013-11-26 11:15:00
5:35 AM,24.8,17.6,74,30.28,10.0,NW,10.4,-,N/A,,Mostly Cloudy,310,2013-11-26 11:35:00
5:55 AM,24.8,17.6,74,30.28,10.0,NW,10.4,-,N/A,,Mostly Cloudy,310,2013-11-26 11:55:00
6:15 AM,23.0,15.8,74,30.29,10.0,NW,11.5,-,N/A,,Partly Cloudy,310,2013-11-26 12:15:00
6:35 AM,23.0,17.6,80,30.30,10.0,NW,12.7,-,N/A,,Clear,310,2013-11-26 12:35:00
6:55 AM,23.0,15.8,74,30.31,10.0,NW,9.2,-,N/A,,Clear,310,2013-11-26 12:55:00
7:15 AM,23.0,17.6,80,30.32,10.0,NW,10.4,-,N/A,,Mostly Cloudy,310,2013-11-26 13:15:00
7:35 AM,26.6,19.4,74,30.33,10.0,NW,17.3,21.9,N/A,,Overcast,310,2013-11-26 13:35:00
7:55 AM,26.6,19.4,74,30.34,10.0,NW,17.3,-,N/A,,Overcast,310,2013-11-26 13:55:00
8:15 AM,26.6,19.4,74,30.35,10.0,NW,16.1,-,N/A,,Overcast,310,2013-11-26 14:15:00
8:35 AM,26.6,19.4,74,30.36,10.0,NW,17.3,23.0,N/A,,Overcast,320,2013-11-26 14:35:00
8:55 AM,28.4,19.4,69,30.36,10.0,NNW,23.0,27.6,N/A,,Overcast,330,2013-11-26 14:55:00
9:15 AM,28.4,19.4,69,30.37,10.0,NNW,25.3,31.1,N/A,,Overcast,330,2013-11-26 15:15:00
9:35 AM,28.4,19.4,69,30.37,10.0,NW,23.0,29.9,N/A,,Overcast,320,2013-11-26 15:35:00
9:55 AM,30.2,19.4,64,30.39,10.0,North,20.7,28.8,N/A,,Mostly Cloudy,360,2013-11-26 15:55:00
10:15 AM,32.0,19.4,60,30.39,10.0,North,21.9,28.8,N/A,,Mostly Cloudy,350,2013-11-26 16:15:00
10:35 AM,30.2,15.8,55,30.40,10.0,North,20.7,28.8,N/A,,Scattered Clouds,360,2013-11-26 16:35:00
10:55 AM,32.0,15.8,51,30.41,10.0,NNW,20.7,27.6,N/A,,Partly Cloudy,340,2013-11-26 16:55:00
11:15 AM,32.0,15.8,51,30.41,10.0,NNW,20.7,-,N/A,,Scattered Clouds,340,2013-11-26 17:15:00
11:35 AM,33.8,15.8,48,30.41,10.0,North,20.7,28.8,N/A,,Scattered Clouds,350,2013-11-26 17:35:00
11:55 AM,33.8,12.2,41,30.40,10.0,NW,20.7,27.6,N/A,,Scattered Clouds,320,2013-11-26 17:55:00
12:15 PM,33.8,12.2,41,30.40,10.0,North,19.6,26.5,N/A,,Clear,350,2013-11-26 18:15:00
12:35 PM,33.8,10.4,38,30.40,10.0,North,20.7,26.5,N/A,,Clear,360,2013-11-26 18:35:00
12:55 PM,33.8,12.2,41,30.39,10.0,North,21.9,26.5,N/A,,Clear,350,2013-11-26 18:55:00
1:15 PM,33.8,8.6,35,30.38,10.0,NNW,17.3,26.5,N/A,,Clear,330,2013-11-26 19:15:00
1:35 PM,33.8,6.8,32,30.37,10.0,NNW,21.9,27.6,N/A,,Clear,330,2013-11-26 19:35:00
1:55 PM,33.8,6.8,32,30.37,10.0,North,23.0,27.6,N/A,,Clear,350,2013-11-26 19:55:00
2:15 PM,33.8,5.0,30,30.37,10.0,NNW,19.6,26.5,N/A,,Clear,340,2013-11-26 20:15:00
2:35 PM,33.8,6.8,32,30.36,10.0,North,20.7,25.3,N/A,,Clear,360,2013-11-26 20:35:00
2:55 PM,33.8,6.8,32,30.36,10.0,NNW,17.3,24.2,N/A,,Clear,330,2013-11-26 20:55:00
3:15 PM,33.8,3.2,28,30.35,10.0,North,20.7,27.6,N/A,,Clear,350,2013-11-26 21:15:00
3:35 PM,33.8,5.0,30,30.35,10.0,NNW,19.6,23.0,N/A,,Clear,330,2013-11-26 21:35:00
3:55 PM,32.0,3.2,30,30.36,10.0,NNW,19.6,-,N/A,,Clear,340,2013-11-26 21:55:00
4:15 PM,32.0,5.0,32,30.37,10.0,NNW,17.3,20.7,N/A,,Clear,330,2013-11-26 22:15:00
4:35 PM,30.2,5.0,34,30.37,10.0,NNW,15.0,-,N/A,,Clear,330,2013-11-26 22:35:00
4:55 PM,30.2,5.0,34,30.38,10.0,NNW,10.4,-,N/A,,Clear,330,2013-11-26 22:55:00
5:15 PM,28.4,5.0,37,30.38,10.0,NNW,9.2,-,N/A,,Clear,330,2013-11-26 23:15:00
5:35 PM,26.6,3.2,37,30.38,10.0,NW,8.1,-,N/A,,Clear,320,2013-11-26 23:35:00
5:55 PM,24.8,3.2,40,30.39,10.0,NNW,4.6,-,N/A,,Clear,340,2013-11-26 23:55:00
6:15 PM,24.8,5.0,43,30.38,10.0,NW,8.1,-,N/A,,Clear,320,2013-11-27 00:15:00
6:35 PM,23.0,3.2,43,30.38,10.0,NW,5.8,-,N/A,,Clear,320,2013-11-27 00:35:00
6:55 PM,21.2,3.2,46,30.38,10.0,NW,8.1,-,N/A,,Clear,320,2013-11-27 00:55:00
7:15 PM,19.4,1.4,46,30.39,10.0,NW,5.8,-,N/A,,Clear,320,2013-11-27 01:15:00
7:35 PM,19.4,3.2,49,30.39,10.0,NNW,4.6,-,N/A,,Clear,330,2013-11-27 01:35:00
7:55 PM,19.4,3.2,49,30.39,10.0,Calm,Calm,-,N/A,,Clear,0,2013-11-27 01:55:00
8:15 PM,17.6,3.2,53,30.39,10.0,Calm,Calm,-,N/A,,Clear,0,2013-11-27 02:15:00
8:35 PM,17.6,3.2,53,30.40,10.0,NNW,3.5,-,N/A,,Clear,340,2013-11-27 02:35:00
8:55 PM,17.6,3.2,53,30.41,10.0,NW,3.5,-,N/A,,Clear,310,2013-11-27 02:55:00
9:15 PM,17.6,5.0,58,30.41,10.0,Calm,Calm,-,N/A,,Clear,0,2013-11-27 03:15:00
9:35 PM,15.8,5.0,62,30.40,10.0,NW,3.5,-,N/A,,Clear,320,2013-11-27 03:35:00
9:55 PM,15.8,3.2,58,30.40,10.0,NW,4.6,-,N/A,,Clear,320,2013-11-27 03:55:00
10:15 PM,15.8,3.2,58,30.40,10.0,NW,4.6,-,N/A,,Clear,310,2013-11-27 04:15:00
10:35 PM,15.8,5.0,62,30.41,10.0,NW,4.6,-,N/A,,Clear,310,2013-11-27 04:35:00
10:55 PM,15.8,5.0,62,30.41,10.0,WNW,5.8,-,N/A,,Clear,290,2013-11-27 04:55:00
11:15 PM,17.6,3.2,53,30.40,10.0,West,5.8,-,N/A,,Clear,280,2013-11-27 05:15:00
11:35 PM,17.6,3.2,53,30.40,10.0,West,4.6,-,N/A,,Clear,280,2013-11-27 05:35:00
11:55 PM,12.2,1.4,62,30.41,10.0,West,4.6,-,N/A,,Clear,280,2013-11-27 05:55:00